Weather History for Yuma MCAS, AZ

Change the Weather History Date:

Wednesday, January 1, 2014

  Actual Average Record
Temperature  
Mean Temperature 59 °F 57 °F  
Max Temperature 74 °F 68 °F 82 °F (1918)
Min Temperature 44 °F 47 °F 27 °F (1976)
Degree Days  
Heating Degree Days 6 8  
Month to date heating degree days 6 8  
Since 1 July heating degree days 247 312  
Cooling Degree Days 0 0  
Month to date cooling degree days 0 0  
Year to date cooling degree days 0 0  
Growing Degree Days 10 (Base 50)    
Moisture  
Dew Point 19 °F    
Average Humidity 23    
Maximum Humidity 37    
Minimum Humidity 9    
Precipitation  
Precipitation 0.00 in 0.02 in 0.18 in (1905)
Month to date precipitation 0.00 0.02  
Year to date precipitation 0.00 0.02  
Sea Level Pressure  
Sea Level Pressure 30.10 in    
Wind  
Wind Speed 5 mph (North)    
Max Wind Speed 14 mph    
Max Gust Speed 17 mph    
Visibility 10 miles    
Events      
T = Trace of Precipitation, MM = Missing Value Source: NWS Daily Summary

Daily Weather History Graph

Daily Weather History Graph

Search for Another Location

Airport:

Trip Planner

Search our weather history database for the weather conditions in past years. The results will help you decide how hot, cold, wet, or windy it might be!

Date:

Astronomy

Jan. 01, 2014 Rise Set
Actual Time 7:40 AM MST 5:43 PM MST
Civil Twilight 7:13 AM MST 6:10 PM MST
Nautical Twilight 6:42 AM MST 6:41 PM MST
Astronomical Twilight 6:12 AM MST 7:11 PM MST
Moon 7:38 AM MST (1/1) 6:29 PM MST (1/1)
Length of Visible Light 10h 57m
Length of Day
10h 03m
New Moon, 0% of the Moon is Illuminated
Jan 1
New Moon
Jan 7
First Quarter
Jan 15
Full
Jan 23
Last Quarter
Jan 30
New

Hourly Weather History & Observations

Time (MST) Temp. Windchill Dew Point Humidity Pressure Visibility Wind Dir Wind Speed Gust Speed Precip Events Conditions
12:57 AM 50.0 °F - 19.9 °F 31% 30.09 in 10.0 mi Calm Calm - N/A   Clear
1:57 AM 48.9 °F - 21.9 °F 35% 30.08 in 10.0 mi Calm Calm - N/A   Clear
2:57 AM 48.9 °F - 21.9 °F 35% 30.09 in 10.0 mi East 3.5 mph - N/A   Clear
3:57 AM 48.9 °F - 21.0 °F 33% 30.10 in 10.0 mi NNE 6.9 mph - N/A   Clear
4:57 AM 48.0 °F - 21.9 °F 36% 30.09 in 10.0 mi NNE 4.6 mph - N/A   Clear
5:57 AM 46.0 °F 43.9 °F 21.9 °F 39% 30.09 in 10.0 mi North 4.6 mph - N/A   Clear
6:57 AM 46.0 °F 44.8 °F 21.0 °F 37% 30.11 in 10.0 mi ENE 3.5 mph - N/A   Clear
7:57 AM 46.0 °F 43.9 °F 19.9 °F 35% 30.13 in 10.0 mi NNE 4.6 mph - N/A   Clear
8:57 AM 53.1 °F - 18.0 °F 25% 30.14 in 10.0 mi NNE 5.8 mph - N/A   Clear
9:57 AM 57.9 °F - 17.1 °F 20% 30.16 in 10.0 mi NNE 4.6 mph - N/A   Clear
10:57 AM 63.0 °F - 19.0 °F 18% 30.17 in 10.0 mi North 5.8 mph - N/A   Clear
11:57 AM 69.1 °F - 15.1 °F 13% 30.14 in 10.0 mi North 10.4 mph - N/A   Clear
12:57 PM 71.6 °F - 15.8 °F 12% 30.11 in 10.0 mi North 9.2 mph - N/A   Clear
1:57 PM 73.0 °F - 18.0 °F 12% 30.09 in 10.0 mi Variable 6.9 mph - N/A   Clear
2:57 PM 73.0 °F - 12.9 °F 10% 30.08 in 10.0 mi North 10.4 mph - N/A   Clear
3:57 PM 73.9 °F - 12.9 °F 10% 30.07 in 10.0 mi North 9.2 mph - N/A   Clear
4:57 PM 72.0 °F - 15.1 °F 11% 30.07 in 10.0 mi North 8.1 mph - N/A   Clear
5:57 PM 69.1 °F - 15.1 °F 13% 30.07 in 10.0 mi North 8.1 mph - N/A   Clear
6:57 PM 64.0 °F - 17.1 °F 16% 30.09 in 10.0 mi NNW 3.5 mph - N/A   Clear
7:57 PM 61.0 °F - 21.0 °F 21% 30.09 in 10.0 mi NW 3.5 mph - N/A   Clear
8:57 PM 60.1 °F - 21.9 °F 23% 30.09 in 10.0 mi NNW 4.6 mph - N/A   Clear
9:57 PM 55.0 °F - 23.0 °F 29% 30.10 in 10.0 mi Calm Calm - N/A   Clear
10:57 PM 53.1 °F - 24.1 °F 32% 30.11 in 10.0 mi Calm Calm - N/A   Clear
11:57 PM 54.0 °F - 23.0 °F 30% 30.11 in 10.0 mi North 3.5 mph - N/A   Clear